星链-36088(STARLINK-36088)

导读 | 豆包AI

STARLINK-36088是美国太空探索技术公司(SpaceX)于2025年12月7日发射的星链(Starlink)低轨通信卫星,是星链全球宽带互联网星座的组成部分。该卫星运行于近地轨道,配备相控阵天线与星间链路,为全球偏远、基础设施匮乏地区提供高速低延迟的宽带互联网接入服务,助力星链网络规模与覆盖能力持续拓展。

基本信息
目录编号:
66941
目录名称:
STARLINK-36088
国际标识:
2025-286S
轨道中心:
EARTH
卫星名称:
星链-36088
卫星全名:
星链-36088(STARLINK-36088)
卫星状态:
在轨 (已飞行143 天)
发射日期:
2025-12-07 UTC
国别 :
美国 (US)
星等 :
--
轨道信息
数据来源 国际轨道数据
星历时间: 2026-04-28T18:40:09+0800
15小时前
查看轨道信息
半长轴: 6853.347km
偏心率: 0.0001104
轨道倾角: 53.158°
近地点辐角 86.044°
升交点赤经 127.397°
平近点角 274.069°
近地点: 474.453km
远地点: 475.967km
周期: 94.105分钟
每日圈数: 15.30202
详细信息
固有亮度:
5
最大亮度:
2.5
卫星平台:
Starlink V1.0
覆盖范围:
全球
运营商:
太空探索技术公司
运营商所在国:
美国
制造商(研发单位):
太空探索技术公司
制造商所在国:
美国
使用方式:
暂无
卫星简介
Starlink 计划是 SpaceX 推出的全球卫星互联网项目,通过发射低轨道卫星,为全球尤其是偏远地区提供高速、低延迟的互联网服务。自 2019 年起,Starlink 已部署数千颗卫星,旨在缩小全球数字鸿沟,推动互联网普及。该项目还为军事、航空等行业提供通信支持,带来广泛经济效益。
2D轨道图
3D轨道图
轨道高度分析图
轨道倾角分析图
轨道综合分析图
查看轨道综合分析图